Location: Quispamsis
(45.4447°N, 65.9414°W)
Time: 19:32:04
(UTC-03:00)

Daily predictions for brighter satellites

Satellite Brightness Start Highest point End
(mag) Time Altitude Azimuth Time Altitude Azimuth Time Altitude Azimuth
SAR-Lupe-1 4.1 21:25:59 10° SSE 21:29:33 74° ENE 21:33:08 10° N
COSMOS 2455 3.3 21:25:35 10° NW 21:31:31 62° WSW 21:37:25 10° SSE
Helios 1B rocket 2.4 21:29:27 10° NNE 21:33:36 79° ESE 21:37:44 10° S
Cosmos 292 Rocket 3.9 21:28:56 10° SSW 21:33:46 89° WNW 21:38:38 10° NNE
COSMOS 2406 3.6 21:29:22 10° S 21:34:44 42° ESE 21:40:05 10° NE
PSLV R/B 3.8 21:32:00 10° WSW 21:34:54 35° S 21:37:49 10° ESE
Cosmos 1455 Rocket 3.4 21:32:22 10° NNW 21:36:44 67° W 21:41:02 10° S
ARGOS 4.1 21:32:44 10° SE 21:37:32 34° ENE 21:42:22 10° N
Cosmos 1939 Rocket 2.9 21:34:14 10° S 21:38:06 78° WSW 21:42:00 10° NNW
Cosmos 1680 Rocket 3.9 21:38:50 10° S 21:43:46 44° ESE 21:48:42 10° NNE
SL-27 R/B 3.7 21:42:12 10° SSE 21:45:14 25° E 21:48:15 10° NE
SPOT 5 3.6 21:43:57 10° SE 21:47:48 33° ENE 21:51:41 10° N
H-2A R/B 4.3 21:48:58 10° E 21:51:11 14° ENE 21:53:25 10° NNE
Cosmos 1743 2.8 21:48:41 10° N 21:52:35 81° W 21:56:28 10° S
Cosmos 1346 2.8 21:53:20 10° S 21:56:04 63° E 21:58:49 10° NNE
Envisat 4.0 21:52:17 10° S 21:57:08 46° W 22:02:02 10° NNW
Cosmos 405 3.5 21:54:34 10° N 21:58:01 43° ENE 22:00:55 13° SE
Terra 3.6 21:58:36 10° ESE 22:01:47 18° ENE 22:04:59 10° NNE
ASTEX 1 3.4 21:57:53 10° SSE 22:02:48 79° E 22:07:42 10° N
MetOp-B 4.2 21:58:41 10° SSE 22:03:59 68° ENE 22:09:19 10° N
Aureole 3 Rocket 3.7 21:57:30 10° S 22:04:07 84° E 22:08:48 10° N
SPOT 1/Viking Rocket 4.2 22:03:38 13° SE 22:07:53 42° ENE 22:12:43 10° N
CRYOSAT 2 4.3 22:04:19 10° S 22:09:10 81° E 22:14:01 10° N
Cosmos 1437 Rocket 3.4 22:07:50 10° N 22:11:26 38° ENE 22:13:57 17° SE
Meteor 2-9 Rocket 4.2 22:07:00 10° N 22:12:28 84° E 22:17:53 11° SSE
Tiangong 2 2.4 22:10:08 10° SSW 22:12:37 21° SSE 22:13:19 19° SE
Aureole 1 Rocket 2.2 22:10:24 10° S 22:13:43 61° ESE 22:16:41 10° NNE
Okean 1-7 Rocket 3.7 22:09:23 10° S 22:13:45 61° E 22:18:13 10° NNE
NOSS 2-2 (E) 3.9 22:11:07 10° SW 22:15:11 71° NW 22:20:06 10° NE
Cosmos 1238 Rocket 4.1 22:09:22 10° S 22:16:04 74° E 22:22:37 10° NNE
DNEPR-1 R/B 3.7 22:12:32 10° NW 22:16:46 67° WSW 22:20:18 16° SSE
Okean 2 3.8 22:13:59 14° SSE 22:17:09 42° E 22:21:02 10° NNE
Meteor 2-4 Rocket 3.8 22:15:50 10° S 22:21:28 88° E 22:27:19 10° N
Cosmos 1666 3.4 22:19:32 10° NNW 22:23:11 50° W 22:26:49 10° S
Cosmos 1371 Rocket 4.1 22:18:28 10° NNW 22:23:49 70° ENE 22:27:44 18° SSE
TELKOM 3 4.3 22:22:09 10° WNW 22:24:22 41° NNE 22:26:52 13° E
ISS -3.0 22:21:59 10° SSW 22:24:55 30° SE 22:27:51 10° ENE
Cosmos 1892 Rocket 4.3 22:24:30 19° SSE 22:27:08 36° E 22:31:12 10° NNE
Cosmos 2228 4.1 22:24:00 10° N 22:27:51 30° ENE 22:30:01 19° ESE
OAO 2 Rocket 4.4 22:25:19 10° SW 22:29:18 24° S 22:31:02 20° SSE
Cosmos 1833 Rocket 4.1 22:29:45 16° ESE 22:31:11 18° E 22:34:52 10° ENE
Cosmos 2181 Rocket 4.4 22:28:20 15° SSE 22:33:18 48° E 22:39:19 10° NNE
Cosmos 921 Rocket 3.7 22:29:16 10° N 22:33:34 42° ENE 22:36:04 22° SE
CZ-3A R/B 3.0 22:32:27 10° SSW 22:33:08 13° SSW 22:33:08 13° SSW
Cosmos 1606 Rocket 3.5 22:34:40 10° N 22:39:01 76° E 22:41:41 22° SSE
Lacrosse 5 rocket 4.2 22:36:32 10° NW 22:39:53 19° N 22:43:15 10° NE
USA 245 2.5 22:38:45 28° S 22:39:58 63° WSW 22:42:23 10° NNW
Intercosmos 24 4.1 22:36:24 10° NNW 22:40:35 65° W 22:43:05 18° S
USA 267 4.2 22:40:28 10° ENE 22:45:25 23° SE 22:46:46 21° SE
SL-24 DEB 4.2 22:43:07 21° S 22:46:14 81° E 22:50:53 10° N
ERS-1 Rocket 4.2 22:42:03 10° SSW 22:46:40 37° W 22:51:19 10° NNW
Cosmos 1726 Rocket 3.4 22:45:38 10° N 22:49:59 83° E 22:52:22 26° SSE
Meteor 1-23 Rocket 4.5 22:45:09 10° SSW 22:50:42 70° WNW 22:56:19 10° N
OE (NEXTSAT) 4.3 22:47:35 10° W 22:51:09 75° SSW 22:52:38 32° ESE
Cosmos 1295 Rocket 4.5 22:45:17 10° N 22:51:28 74° E 22:55:37 22° SSE
Cosmos 1515 3.6 22:53:03 27° S 22:54:59 74° E 22:58:48 10° NNE
Meteor 1-4 Rocket 3.6 22:51:53 10° N 22:55:08 30° ENE 22:56:01 26° E
H-2A R/B 1.9 22:52:51 23° SSE 22:55:58 85° WSW 23:01:02 10° NNW
Cosmos 2058 Rocket 3.0 22:52:01 10° N 22:56:25 71° E 22:58:34 30° SSE
Cosmos 1980 Rocket 3.7 22:52:12 10° N 22:56:53 26° NE 23:00:40 14° E
CARTOSAT-1 3.8 22:59:30 31° SE 23:01:23 58° ENE 23:05:38 10° N
CENTAUR R/B 4.3 22:55:42 10° NW 23:02:38 33° WSW 23:09:18 12° S
Cosmos 1025 Rocket 4.0 22:59:02 10° SSW 23:03:07 45° WNW 23:07:14 10° N
DMSP B5D2-2 4.1 22:58:20 10° NNE 23:03:36 62° ESE 23:06:40 25° S
PSLV R/B 3.9 23:04:14 32° ENE 23:04:17 32° ENE 23:06:50 10° N
Cosmos 1624 Rocket 4.3 23:02:43 10° NNW 23:07:56 61° WSW 23:10:57 25° S
SeaSat 1 4.3 23:06:53 11° E 23:10:17 21° NE 23:13:56 10° N
Meteor 1-22 Rocket 4.5 23:08:03 10° N 23:13:11 49° ENE 23:15:28 30° SE
ARGOS 4.3 23:13:33 14° SSW 23:17:43 37° W 23:22:44 10° NNW
SL-8 Rocket 4.0 23:13:13 10° N 23:19:30 89° E 23:23:03 28° S
USA 234 4.4 23:16:07 10° E 23:22:06 39° NNE 23:28:04 10° NW
Cosmos 2366 rocket 4.0 23:17:20 10° N 23:23:32 73° E 23:26:33 32° SSE
Landsat 7 4.1 23:21:40 28° S 23:24:01 60° W 23:28:44 10° NNW
Cosmos 1812 Rocket 4.2 23:20:43 10° N 23:25:01 44° ENE 23:26:12 36° ESE
SPOT 5 4.4 23:23:04 13° SW 23:25:57 25° W 23:29:33 10° NW
Cosmos 2278 3.8 23:20:25 10° NNW 23:26:08 72° WSW 23:28:45 33° S
H-2A R/B 2.2 23:24:49 37° S 23:26:33 80° WSW 23:31:07 10° NNW
CZ-4C R/B 3.8 23:26:09 35° E 23:26:34 36° ENE 23:29:52 10° N
Cosmos 2056 Rocket 4.2 23:21:41 10° NNW 23:26:36 44° WSW 23:29:09 25° SSW
Meteor 2-21 4.4 23:22:05 10° N 23:28:10 79° E 23:31:02 33° SSE
Cosmos 2082 Rocket 2.3 23:28:02 32° S 23:30:33 58° ESE 23:36:07 10° NNE
Meteor 2-21 Rocket 4.5 23:24:57 10° N 23:31:00 68° E 23:33:41 34° SSE
Cosmos 1544 4.2 23:33:17 10° N 23:36:33 31° ENE 23:36:42 30° E
CZ-4B R/B 3.6 23:32:32 10° NNE 23:37:31 60° ESE 23:39:09 41° SSE
Cosmos 1626 Rocket 3.4 23:37:17 50° SSE 23:38:20 74° E 23:42:39 10° NNE
Terra 2.1 23:37:11 35° SSW 23:39:04 61° W 23:43:48 10° NNW
Cosmos 389 Rocket 4.5 23:36:42 10° NNE 23:39:07 17° ENE 23:39:14 17° ENE
CZ-2C R/B 4.1 23:39:45 10° NE 23:43:58 21° E 23:44:47 21° ESE
Cosmos 2369 4.2 23:39:06 10° NW 23:44:39 52° WSW 23:46:58 32° SSW
Timation 2 Rocket 4.3 23:42:49 36° SSE 23:44:49 47° ESE 23:50:42 10° NE
ALOS 2 4.4 23:43:48 18° E 23:45:05 21° ENE 23:48:21 10° NNE
Spot 4 3.8 23:45:18 46° SSE 23:46:45 87° ENE 23:51:36 10° NNW
Cosmos 1420 Rocket 4.0 23:42:47 10° NNW 23:48:06 80° ENE 23:49:47 44° SSE
COSMOS 2487 3.0 23:47:21 40° WSW 23:48:18 55° WNW 23:51:51 10° NNE
Cosmos 1825 Rocket 4.4 23:51:38 33° E 23:51:46 33° E 23:55:38 10° NNE
Cosmos 1842 3.6 23:53:44 49° E 23:53:44 49° E 23:57:30 10° NNE
Cosmos 1048 Rocket 4.2 23:53:18 44° SE 23:54:07 48° ESE 23:59:05 10° NNE
SL-16 R/B 3.8 23:49:57 10° N 23:54:43 27° NE 23:58:07 16° E
Cosmos 1953 3.3 23:51:06 10° N 23:54:51 34° ENE 23:55:13 33° E
